[[{"header":{"parameterUnit":"m.s-1","parameterCategory":1,"la1":30.2991,"la2":30.254,"lo1":-89.0895,"lo2":-89.0444,"dy":0.0017,"dx":0.0017,"nx":28,"ny":28,"refTime":"2026-02-05T03:00:00:Z","depth":0,"parameterNumber":2,"parameterNumberName":"U-component_of_WINDS"},"data":[0,0,0,0,0,0,0,0,0,0,0,0,0,0,0,0,0,0,0,0,0,0,0,0,0,0,0,0,0,0,0,0,0,0,0,0,0,0,0,0,0,0,0,0,0,0,0,0,0,0,0,0,0,0,0,0,0,0,6.5806,6.5808,0,6.5986,6.5988,6.599,6.5936,6.5932,6.5928,6.5924,6.6114,6.6122,6.6131,0,0,0,0,0,0,0,0,0,0,0,0,0,6.5419,6.5426,6.5806,6.5808,6.581,6.5986,6.5989,6.5991,6.5936,6.5932,6.5927,6.5923,6.6111,6.6121,6.6131,0,0,0,0,0,0,0,0,0,0,0,0,0,6.5592,6.5429,6.5805,6.5804,6.5806,6.5986,6.5989,6.5992,6.5937,6.5931,6.5926,6.592,6.6108,6.612,6.6133,6.6326,0,0,6.6172,6.6178,0,0,0,0,0,0,0,0,6.5582,6.5606,6.5802,6.5804,6.5807,6.5932,6.5921,6.6104,6.5939,6.5887,6.5924,6.5918,6.6058,6.6075,6.6121,6.6335,6.6343,6.6173,6.6181,6.6187,6.619,0,0,0,0,0,0,0,6.557,6.5598,6.5877,6.5805,6.5808,6.5796,6.5814,6.5956,6.6003,6.5891,6.5888,6.591,6.6059,6.6109,6.6125,6.6346,6.6173,6.6184,6.6192,6.6197,6.6729,6.6735,0,0,0,0,0,0,6.5556,6.5589,6.5872,6.5883,6.5678,6.5808,6.5828,6.5898,6.6001,6.6011,6.5914,6.5906,6.609,6.6111,6.6132,6.6366,6.6187,6.6199,6.6206,6.6723,6.6731,6.6737,0,0,0,0,0,0,6.5548,6.5582,6.5864,6.5735,6.577,6.582,6.5899,6.5905,6.5955,6.6018,6.6027,6.5957,6.6086,6.6114,6.6278,6.6372,6.6204,6.6216,6.6715,6.6725,6.6734,6.6835,0,0,0,0,0,0,6.5537,6.5579,6.5652,6.5737,6.5777,6.6006,6.5905,6.5912,6.5977,6.5968,6.6061,6.6071,6.6084,6.6259,6.6291,6.6386,6.6226,6.6707,6.672,6.6731,6.6823,6.6847,6.6867,0,0,0,0,0,6.5523,6.5674,6.5656,6.569,6.5869,6.6012,6.6035,6.6046,6.5984,6.6059,6.61,6.6068,6.6356,6.6277,6.6312,6.6412,6.6701,6.6716,6.673,6.6814,6.6842,6.6866,0,0,0,0,0,0,6.56,6.5685,6.5666,6.5848,6.5923,6.6002,6.6096,6.6076,6.6171,6.6159,6.617,6.6191,6.636,6.6403,6.6313,6.6606,6.652,6.6542,6.6571,6.6599,6.662,6.6606,6.6237,0,0,0,0,0,6.5638,6.5745,6.5814,6.5969,6.6007,6.6046,6.6108,6.611,6.6189,6.6221,6.6274,6.6353,6.6461,6.6532,6.6636,6.6829,6.6849,6.6916,6.6938,6.6955,6.6974,6.7081,6.7111,6.6785,6.6785,6.6784,0,0,6.5717,6.5777,6.5845,6.5986,6.6044,6.6157,6.6073,6.6195,6.628,6.624,6.6398,6.644,6.6529,6.6709,6.6791,6.675,6.7069,6.6973,6.6987,6.6997,6.7099,6.713,6.7157,6.6795,6.6793,6.6791,0,0,6.592,6.5976,6.611,6.6171,6.626,6.6284,6.6317,6.64,6.6426,6.6585,6.6557,6.6659,6.6845,6.691,6.6967,6.7196,6.7171,6.723,6.7343,6.7447,6.7472,6.7495,6.7577,6.7607,6.7249,6.7249,6.7249,0,6.6008,6.6175,6.6183,6.6308,6.6372,6.634,6.6477,6.6536,6.6655,6.67,6.6652,6.6886,6.6944,6.7139,6.7195,6.7242,6.7281,6.7219,6.7468,6.7491,6.7512,6.7591,6.7622,6.7256,6.7255,6.7254,6.7254,0,6.628,6.6397,6.6495,6.6609,6.6684,6.6815,6.6844,6.6919,6.6915,6.6945,6.7108,6.7176,6.7293,6.734,6.7338,6.7536,6.7507,6.7464,6.7378,6.755,6.7624,6.7654,6.7265,6.7263,6.7261,6.7259,0,0,6.6535,6.6652,6.6688,6.674,6.6837,6.6928,6.7058,6.7171,6.7236,6.732,6.743,6.7589,6.7549,6.7614,6.762,6.7711,6.7888,6.7656,6.7658,6.7697,6.8112,6.8144,6.8178,6.7872,6.7878,6.7882,6.8104,0,6.6746,6.6973,6.6984,6.7192,6.73,6.7273,6.7386,6.7459,6.7491,6.759,6.7626,6.7738,6.7677,6.7716,6.7805,6.7848,6.7972,6.7832,6.7976,6.7981,6.7954,6.8217,6.8251,6.8457,6.8133,6.8138,6.8142,0,6.7022,6.7113,6.7331,6.7413,6.7459,6.756,6.7666,6.7759,6.7842,6.7859,6.7933,6.7925,6.806,6.797,6.8157,6.8062,6.8122,6.8152,6.816,6.8174,6.8072,6.8238,6.8523,6.8554,6.8187,6.8184,6.818,0,6.7186,6.7364,6.7517,6.7563,6.7662,6.7734,6.7779,6.7856,6.7924,6.8016,6.806,6.8168,6.8227,6.8312,6.8334,6.8266,6.8522,6.8433,6.8541,6.8541,6.8596,6.8592,6.8894,6.8635,6.8634,6.8634,6.8633,0,6.7421,6.7555,6.7592,6.7687,6.7837,6.785,6.7999,6.804,6.8108,6.8211,6.8195,6.8292,6.8315,6.8418,6.8437,6.859,6.8617,6.8635,6.8639,6.8637,6.8634,6.8676,6.8662,6.8642,6.864,6.8639,6.8637,0,6.763,6.766,6.7825,6.7906,6.7929,6.8037,6.8106,6.8198,6.8228,6.8359,6.839,6.8439,6.8559,6.8589,6.8733,6.8746,6.8926,6.8916,6.8898,6.8897,6.9003,6.8993,6.9343,6.939,6.91,6.9103,6.9105,0,6.7777,6.788,6.7971,6.8038,6.8086,6.8195,6.8263,6.828,6.8353,6.8455,6.8535,6.8653,6.8747,6.8941,6.899,6.91,6.9092,6.9208,6.9109,6.9104,6.9094,6.9088,6.9098,6.9226,6.9229,6.9232,6.9234,0,6.8035,6.8045,6.8144,6.8249,6.8331,6.8415,6.8495,6.8552,6.858,6.8663,6.8785,6.8859,6.9005,6.9122,6.9234,6.9282,6.9264,6.9265,6.9295,6.9294,6.9279,6.9289,6.8949,6.9256,6.9254,6.9252,6.9251,6.925,6.8218,6.8308,6.8387,6.8498,6.856,6.8636,6.8725,6.8767,6.8868,6.8988,6.8992,6.9125,6.9206,6.9353,6.9408,6.9513,6.9479,6.9523,6.9534,6.9545,6.9554,6.9263,6.9534,6.9533,6.9533,6.9532,6.9532,0,6.8476,6.8525,6.8627,6.8739,6.8827,6.8801,6.8889,6.8965,6.9081,6.9158,6.9251,6.9392,6.9506,6.9565,6.9678,6.9751,6.9746,6.9781,6.9775,6.9787,6.9579,6.9541,6.9783,6.9783,6.9783,6.9783,6.9783,6.9783,6.862,6.8771,6.8791,6.8974,6.9022,6.9151,6.9203,6.9274,6.9335,6.9492,6.9586,6.9623,6.9693,6.9812,6.9916,6.993,6.9973,7.0012,7.0022,6.9827,6.9801,6.9777,6.9741,7.0022,7.0022,7.0222,7.0223,7.0225]},{"header":{"parameterUnit":"m.s-1","parameterCategory":1,"la1":30.2991,"la2":30.254,"lo1":-89.0895,"lo2":-89.0444,"dy":0.0017,"dx":0.0017,"nx":28,"ny":28,"refTime":"2026-02-05T03:00:00:Z","depth":0,"parameterNumber":3,"parameterNumberName":"V-component_of_WINDS"},"data":[0,0,0,0,0,0,0,0,0,0,0,0,0,0,0,0,0,0,0,0,0,0,0,0,0,0,0,0,0,0,0,0,0,0,0,0,0,0,0,0,0,0,0,0,0,0,0,0,0,0,0,0,0,0,0,0,0,0,1.224,1.2241,0,1.2325,1.2326,1.2327,1.2311,1.231,1.2308,1.2307,1.2395,1.2398,1.2402,0,0,0,0,0,0,0,0,0,0,0,0,0,1.2067,1.207,1.224,1.2241,1.2242,1.2325,1.2326,1.2327,1.2312,1.231,1.2308,1.2306,1.2394,1.2398,1.2402,0,0,0,0,0,0,0,0,0,0,0,0,0,1.2146,1.2071,1.224,1.2245,1.2246,1.2324,1.2326,1.2327,1.2312,1.231,1.2307,1.2305,1.2392,1.2398,1.2403,1.2483,0,0,1.242,1.2423,0,0,0,0,0,0,0,0,1.2141,1.2152,1.2243,1.2244,1.2246,1.2305,1.2297,1.2379,1.2313,1.2287,1.2307,1.2304,1.2367,1.2374,1.2395,1.2487,1.2491,1.2421,1.2424,1.2427,1.2428,0,0,0,0,0,0,0,1.2136,1.2148,1.2274,1.2244,1.2246,1.2243,1.2251,1.2312,1.2339,1.2289,1.2288,1.2298,1.2367,1.239,1.2397,1.2492,1.2421,1.2426,1.2429,1.2431,1.2653,1.2656,0,0,0,0,0,0,1.2129,1.2144,1.2271,1.2276,1.2187,1.2248,1.2257,1.2288,1.2338,1.2343,1.23,1.2297,1.2381,1.2391,1.24,1.2497,1.2426,1.2432,1.2435,1.2651,1.2654,1.2656,0,0,0,0,0,0,1.2125,1.214,1.2268,1.221,1.2226,1.2253,1.2288,1.2291,1.2314,1.2346,1.2351,1.2318,1.238,1.2392,1.2462,1.25,1.2434,1.2439,1.2648,1.2652,1.2655,1.2692,0,0,0,0,0,0,1.212,1.2139,1.217,1.2211,1.2229,1.2328,1.229,1.2295,1.2323,1.2321,1.2365,1.237,1.2379,1.2454,1.2468,1.2507,1.2444,1.2644,1.2649,1.2654,1.2687,1.2696,1.2704,0,0,0,0,0,1.2114,1.2177,1.2171,1.2187,1.2268,1.2331,1.2341,1.235,1.2327,1.2358,1.2378,1.2368,1.2493,1.2461,1.2477,1.2518,1.2642,1.2648,1.2654,1.2684,1.2695,1.2704,0,0,0,0,0,0,1.214,1.2182,1.2177,1.2254,1.2289,1.2328,1.2367,1.2362,1.2404,1.24,1.2409,1.2419,1.2491,1.2511,1.2475,1.2597,1.2564,1.2574,1.2582,1.2593,1.2601,1.2595,1.2448,0,0,0,0,0,1.2155,1.2202,1.2236,1.2302,1.2319,1.234,1.2368,1.2372,1.2408,1.2423,1.2449,1.2485,1.2532,1.2563,1.2608,1.2689,1.2699,1.2725,1.2733,1.274,1.2748,1.2793,1.2805,1.2675,1.2675,1.2675,0,0,1.2186,1.2215,1.2244,1.2308,1.2335,1.2384,1.2353,1.2406,1.2443,1.2431,1.2499,1.2519,1.256,1.2636,1.267,1.2655,1.2786,1.2747,1.2753,1.2757,1.28,1.2812,1.2823,1.2679,1.2678,1.2678,0,0,1.2268,1.2294,1.2352,1.2379,1.2421,1.2434,1.2448,1.2487,1.25,1.2568,1.256,1.2604,1.2685,1.2715,1.274,1.2832,1.2825,1.2846,1.2891,1.2934,1.2944,1.2954,1.2987,1.2999,1.2854,1.2854,1.2854,0,1.2302,1.2375,1.2382,1.2436,1.2465,1.2455,1.2514,1.254,1.2595,1.2615,1.2596,1.2697,1.2724,1.2807,1.2829,1.285,1.2866,1.2842,1.2942,1.2951,1.296,1.2992,1.3005,1.2857,1.2856,1.2856,1.2856,0,1.2415,1.2466,1.2507,1.2559,1.2592,1.2648,1.2664,1.2696,1.2697,1.2712,1.2781,1.2813,1.2864,1.2884,1.2885,1.2967,1.2956,1.294,1.2907,1.2975,1.3005,1.3018,1.286,1.2859,1.2859,1.2858,0,0,1.2518,1.2572,1.2587,1.2611,1.2655,1.2695,1.275,1.28,1.2828,1.2865,1.2912,1.298,1.2965,1.2994,1.2998,1.3036,1.3108,1.3015,1.3016,1.3032,1.32,1.3213,1.3227,1.3102,1.3105,1.3107,1.3197,0,1.2605,1.2703,1.271,1.2798,1.2845,1.2837,1.2885,1.2917,1.2933,1.2975,1.2992,1.3041,1.3017,1.3034,1.3071,1.3091,1.3142,1.3085,1.3147,1.3149,1.3139,1.3243,1.3257,1.3342,1.3209,1.3211,1.3213,0,1.272,1.276,1.2853,1.289,1.291,1.2954,1.3,1.304,1.3076,1.3085,1.3117,1.3116,1.3173,1.3137,1.3216,1.3176,1.3202,1.3216,1.3219,1.3227,1.3186,1.3255,1.3369,1.3382,1.3231,1.323,1.3228,0,1.2787,1.2864,1.2929,1.295,1.2994,1.3025,1.3045,1.3079,1.3109,1.3149,1.3168,1.3214,1.324,1.3276,1.3288,1.326,1.3366,1.3331,1.3376,1.3376,1.34,1.3399,1.3521,1.3414,1.3414,1.3414,1.3413,0,1.2884,1.2942,1.296,1.3001,1.3064,1.3072,1.3135,1.3154,1.3184,1.3228,1.3223,1.3264,1.3276,1.332,1.3329,1.3393,1.3405,1.3414,1.3416,1.3415,1.3414,1.3433,1.3428,1.3417,1.3416,1.3416,1.3415,0,1.297,1.2985,1.3056,1.3092,1.3102,1.3148,1.3179,1.3218,1.3232,1.3288,1.3302,1.3324,1.3375,1.3389,1.3451,1.3457,1.3533,1.3529,1.3521,1.3521,1.3565,1.3561,1.3705,1.3725,1.3604,1.3605,1.3606,0,1.3032,1.3076,1.3117,1.3146,1.3167,1.3214,1.3243,1.3252,1.3283,1.3328,1.3362,1.3412,1.3452,1.3534,1.3556,1.3603,1.3601,1.3648,1.3608,1.3606,1.3603,1.3601,1.3606,1.3656,1.3657,1.3658,1.3659,0,1.3141,1.3146,1.3188,1.3234,1.3269,1.3306,1.3341,1.3365,1.3378,1.3414,1.3465,1.3497,1.3559,1.3609,1.3656,1.3677,1.3671,1.3671,1.3684,1.3685,1.3679,1.3684,1.3543,1.3669,1.3668,1.3667,1.3666,1.3666,1.3218,1.3256,1.3291,1.3339,1.3366,1.3398,1.3437,1.3455,1.3498,1.355,1.3552,1.3608,1.3643,1.3706,1.3729,1.3773,1.376,1.3778,1.3783,1.3788,1.3792,1.367,1.3782,1.3782,1.3781,1.3781,1.3781,0,1.3327,1.3348,1.3392,1.3441,1.3479,1.3468,1.3506,1.3538,1.3588,1.3621,1.3661,1.372,1.3768,1.3793,1.3842,1.3872,1.3871,1.3885,1.3883,1.3888,1.3801,1.3786,1.3885,1.3885,1.3885,1.3885,1.3885,1.3885,1.3388,1.3453,1.3462,1.354,1.3561,1.3616,1.3639,1.3669,1.3695,1.3762,1.3802,1.3817,1.3847,1.3897,1.3941,1.3947,1.3966,1.3982,1.3986,1.3905,1.3894,1.3884,1.387,1.3985,1.3985,1.407,1.4071,1.4071]}]]